KC0AFB Weather Reports


Display with metric or nautical units.
time (UTC)temp
F
wind
direction
speed
MPH
gust
MPH
rain 1hr
in
rain 24hr
in
rain mn
in
humidity
%
barometer
mb
20260510163536 54 50 3.0 3.0 0.00 0.00 0.00 45 1023.5
20260510163033 54 65 2.0 2.0 0.00 0.00 0.00 46 1023.4
20260510162528 54 155 2.0 2.0 0.00 0.00 0.00 50 1023.4
20260510162024 53 133 1.0 1.0 0.00 0.00 0.00 47 1023.6
20260510161520 53 290 3.0 3.0 0.00 0.00 0.00 46 1023.6
20260510161017 53 8 3.0 6.0 0.00 0.00 0.00 48 1023.6
20260510160509 53 118 0.0 1.0 0.00 0.00 0.00 48 1023.5
20260510160008 53 83 4.0 5.0 0.00 0.00 0.00 46 1023.6
20260510155504 52 59 1.0 1.0 0.00 0.00 0.00 49 1023.3
20260510155000 53 254 3.0 6.0 0.00 0.00 0.00 49 1023.2
20260510154451 54 105 3.0 5.0 0.00 0.00 0.00 54 1023.3
20260510153950 53 146 2.0 2.0 0.00 0.00 0.00 51 1023.4
20260510153447 51 103 1.0 1.0 0.00 0.00 0.00 50 1023.6
20260510152944 52 59 2.0 2.0 0.00 0.00 0.00 53 1023.3
20260510152441 51 197 2.0 2.0 0.00 0.00 0.00 50 1023.4
20260510151937 51 241 3.0 3.0 0.00 0.00 0.00 51 1023.5
20260510151434 52 206 2.0 2.0 0.00 0.00 0.00 52 1023.6
20260510150930 51 159 2.0 2.0 0.00 0.00 0.00 52 1023.5
20260510150426 51 64 3.0 3.0 0.00 0.00 0.00 50 1023.5
20260510145922 51 113 1.0 1.0 0.00 0.00 0.00 49 1023.4
20260510145413 52 97 2.0 2.0 0.00 0.00 0.00 51 1023.4
20260510144910 50 69 1.0 1.0 0.00 0.00 0.00 53 1023.5
20260510144407 51 19 2.0 2.0 0.00 0.00 0.00 53 1023.3
20260510143901 51 175 2.0 2.0 0.00 0.00 0.00 53 1023.4
20260510143357 50 109 0.0 0.0 0.00 0.00 0.00 54 1023.1
20260510142855 50 76 3.0 3.0 0.00 0.00 0.00 53 1023.3
20260510142351 49 75 0.0 0.0 0.00 0.00 0.00 55 1023.3
20260510141848 47 58 1.0 2.0 0.00 0.00 0.00 59 1023.5
20260510141345 48 56 1.0 1.0 0.00 0.00 0.00 57 1023.3
20260510140842 48 81 0.0 0.0 0.00 0.00 0.00 57 1023.3
20260510140338 48 36 1.0 1.0 0.00 0.00 0.00 56 1023.3
20260510135831 48 99 1.0 1.0 0.00 0.00 0.00 56 1023.2
20260510135327 47 114 0.0 0.0 0.00 0.00 0.00 59 1023.4
20260510134825 46 78 0.0 1.0 0.00 0.00 0.00 59 1023.4
20260510134322 45 114 0.0 1.0 0.00 0.00 0.00 63 1023.3
20260510133818 44 55 0.0 1.0 0.00 0.00 0.00 62 1023.4
20260510133314 43 29 3.0 3.0 0.00 0.00 0.00 64 1023.3
20260510132810 42 17 1.0 2.0 0.00 0.00 0.00 67 1023.0
20260510132308 41 44 1.0 1.0 0.00 0.00 0.00 67 1023.3
20260510131805 40 40 2.0 2.0 0.00 0.00 0.00 68 1023.2
20260510131303 39 25 1.0 2.0 0.00 0.00 0.00 69 1023.2
20260510130759 38 343 3.0 3.0 0.00 0.00 0.00 69 1023.1
20260510130256 39 17 1.0 2.0 0.00 0.00 0.00 68 1023.1
20260510125752 38 23 4.0 5.0 0.00 0.00 0.00 69 1023.1
20260510125248 39 31 4.0 5.0 0.00 0.00 0.00 67 1023.0
20260510124745 38 59 0.0 1.0 0.00 0.00 0.00 67 1022.8
20260510124243 38 61 0.0 0.0 0.00 0.00 0.00 69 1023.0
20260510123738 37 35 1.0 1.0 0.00 0.00 0.00 69 1022.5
20260510123234 37 42 1.0 1.0 0.00 0.00 0.00 70 1022.7
20260510122730 36 31 2.0 2.0 0.00 0.00 0.00 70 1022.5
20260510122227 36 84 0.0 0.0 0.00 0.00 0.00 71 1022.6
20260510121723 33 84 0.0 0.0 0.00 0.00 0.00 75 1022.7
20260510121220 32 87 0.0 0.0 0.00 0.00 0.00 76 1022.5
20260510120718 31 70 0.0 0.0 0.00 0.00 0.00 77 1022.4
20260510120214 31 130 0.0 0.0 0.00 0.00 0.00 77 1022.5
20260510115709 31 130 0.0 1.0 0.00 0.00 0.00 77 1022.2
20260510115208 31 104 0.0 1.0 0.00 0.00 0.00 78 1022.3
20260510114703 30 74 0.0 0.0 0.00 0.00 0.00 80 1022.2
20260510114200 30 70 0.0 0.0 0.00 0.00 0.00 80 1022.2
20260510113655 30 70 0.0 0.0 0.00 0.00 0.00 81 1021.9
20260510113152 30 70 0.0 0.0 0.00 0.00 0.00 80 1021.9
20260510112643 29 70 0.0 0.0 0.00 0.00 0.00 80 1021.9
20260510112140 29 70 0.0 0.0 0.00 0.00 0.00 79 1021.7
20260510111636 30 71 0.0 1.0 0.00 0.00 0.00 78 1021.5
20260510111132 30 105 0.0 0.0 0.00 0.00 0.00 78 1021.8
20260510110628 31 105 1.0 1.0 0.00 0.00 0.00 77 1021.8
20260510110126 32 84 0.0 1.0 0.00 0.00 0.00 73 1021.6
20260510105621 33 56 1.0 2.0 0.00 0.00 0.00 74 1021.5
20260510105115 33 55 1.0 2.0 0.00 0.00 0.00 74 1021.6
20260510104613 33 11 2.0 2.0 0.00 0.00 0.00 76 1021.5
20260510104109 31 51 0.0 0.0 0.00 0.00 0.00 75 1021.5
20260510103606 33 36 0.0 0.0 0.00 0.00 0.00 74 1021.5
20260510103102 34 24 0.0 0.0 0.00 0.00 0.00 72 1021.5
20260510102557 34 12 2.0 2.0 0.00 0.00 0.00 73 1021.4
20260510102054 32 346 2.0 2.0 0.00 0.00 0.00 75 1021.5
20260510101552 33 47 0.0 0.0 0.00 0.00 0.00 74 1021.4
20260510101050 33 30 1.0 2.0 0.00 0.00 0.00 73 1021.5
20260510100545 33 23 1.0 1.0 0.00 0.00 0.00 73 1021.4
20260510100043 34 29 1.0 2.0 0.00 0.00 0.00 72 1021.5
20260510095539 34 22 2.0 2.0 0.00 0.00 0.00 71 1021.3
20260510095038 34 22 1.0 2.0 0.00 0.00 0.00 70 1021.3
20260510094533 35 26 1.0 1.0 0.00 0.00 0.00 70 1021.3
20260510094028 34 20 2.0 2.0 0.00 0.00 0.00 70 1021.2
20260510093525 35 353 2.0 2.0 0.00 0.00 0.00 70 1021.1
20260510093022 34 22 3.0 3.0 0.00 0.00 0.00 71 1021.0
20260510092519 34 25 3.0 3.0 0.00 0.00 0.00 70 1020.9
20260510092018 34 2 3.0 3.0 0.00 0.00 0.00 70 1021.1
20260510091516 33 18 1.0 2.0 0.00 0.00 0.00 71 1021.0
20260510091011 33 11 1.0 1.0 0.00 0.00 0.00 70 1021.1
20260510090509 33 357 1.0 1.0 0.00 0.00 0.00 71 1020.9
20260510090004 33 331 1.0 1.0 0.00 0.00 0.00 71 1020.7
20260510085459 34 332 1.0 1.0 0.00 0.00 0.00 70 1020.8
20260510084955 34 13 0.0 1.0 0.00 0.00 0.00 69 1020.6
20260510084452 35 34 0.0 0.0 0.00 0.00 0.00 68 1020.7
20260510083949 35 13 1.0 2.0 0.00 0.00 0.00 67 1020.7
20260510083445 35 2 3.0 3.0 0.00 0.00 0.00 67 1020.3
20260510082941 36 357 2.0 2.0 0.00 0.00 0.00 66 1020.3
20260510082439 37 356 1.0 2.0 0.00 0.00 0.00 65 1020.3
20260510081938 37 6 3.0 3.0 0.00 0.00 0.00 65 1020.4
20260510081434 37 1 2.0 2.0 0.00 0.00 0.00 64 1020.4
20260510080930 37 16 3.0 3.0 0.00 0.00 0.00 64 1020.1
20260510080428 37 19 2.0 2.0 0.00 0.00 0.00 63 1020.3
20260510075925 38 359 3.0 3.0 0.00 0.00 0.00 63 1020.3
20260510075424 37 6 5.0 6.0 0.00 0.00 0.00 63 1020.1
20260510074921 37 355 3.0 5.0 0.00 0.00 0.00 63 1020.1
20260510074418 37 354 2.0 2.0 0.00 0.00 0.00 63 1019.9
20260510073914 37 22 2.0 2.0 0.00 0.00 0.00 63 1020.3
20260510073409 38 10 2.0 2.0 0.00 0.00 0.00 62 1019.9
20260510072906 38 26 1.0 1.0 0.00 0.00 0.00 62 1020.0
20260510072403 38 27 1.0 2.0 0.00 0.00 0.00 61 1020.0
20260510071858 38 25 1.0 2.0 0.00 0.00 0.00 61 1019.7
20260510071355 39 17 1.0 2.0 0.00 0.00 0.00 61 1019.9
20260510070854 38 24 2.0 2.0 0.00 0.00 0.00 61 1019.8
20260510070351 38 28 1.0 2.0 0.00 0.00 0.00 61 1019.7
20260510065851 37 26 1.0 1.0 0.00 0.00 0.00 62 1019.7
20260510065348 37 33 0.0 0.0 0.00 0.00 0.00 63 1019.5
20260510064844 36 33 0.0 0.0 0.00 0.00 0.00 63 1019.6
20260510064342 37 33 0.0 0.0 0.00 0.00 0.00 61 1019.6
20260510063838 38 33 0.0 0.0 0.00 0.00 0.00 60 1019.5
20260510063335 38 33 0.0 0.0 0.00 0.00 0.00 59 1019.4
20260510062831 39 33 0.0 1.0 0.00 0.00 0.00 59 1019.6
20260510062327 39 29 0.0 1.0 0.00 0.00 0.00 58 1019.5
20260510061822 39 27 0.0 1.0 0.00 0.00 0.00 57 1019.5
20260510061320 39 34 1.0 1.0 0.00 0.00 0.00 58 1019.6
20260510060815 40 2 1.0 1.0 0.00 0.00 0.00 56 1019.3
20260510060313 41 306 1.0 1.0 0.00 0.00 0.00 55 1019.3
20260510055809 41 340 1.0 1.0 0.00 0.00 0.00 55 1019.3
20260510055308 42 316 1.0 2.0 0.00 0.00 0.00 53 1019.2
20260510054807 42 8 1.0 1.0 0.00 0.00 0.00 53 1019.1
20260510054304 43 354 2.0 2.0 0.00 0.00 0.00 52 1019.0
20260510053804 43 342 3.0 3.0 0.00 0.00 0.00 50 1019.0
20260510053254 44 355 4.0 5.0 0.00 0.00 0.00 50 1019.1
20260510052750 43 342 4.0 5.0 0.00 0.00 0.00 51 1018.7
20260510052246 43 9 1.0 2.0 0.00 0.00 0.00 52 1018.6
20260510051742 42 348 2.0 2.0 0.00 0.00 0.00 52 1018.6
20260510051239 42 353 2.0 2.0 0.00 0.00 0.00 53 1018.6
20260510050736 41 2 2.0 2.0 0.00 0.00 0.00 54 1018.3
20260510050233 41 99 0.0 0.0 0.00 0.00 0.00 54 1018.2
20260510045730 42 152 1.0 1.0 0.00 0.03 0.03 53 1018.2
20260510045226 43 177 1.0 1.0 0.00 0.03 0.03 52 1018.0
20260510044723 42 168 1.0 1.0 0.00 0.03 0.03 52 1018.0
20260510044221 41 68 0.0 0.0 0.00 0.03 0.03 54 1017.9
20260510043716 42 70 0.0 0.0 0.00 0.03 0.03 53 1017.9
20260510043213 42 68 0.0 0.0 0.00 0.03 0.03 52 1017.8
20260510042710 41 68 0.0 0.0 0.00 0.03 0.03 53 1017.6
20260510042206 43 68 0.0 0.0 0.00 0.03 0.03 51 1017.6
20260510041703 44 56 0.0 0.0 0.00 0.03 0.03 50 1017.5
20260510041201 43 56 0.0 0.0 0.00 0.03 0.03 51 1017.7
20260510040657 42 59 1.0 1.0 0.00 0.03 0.03 53 1017.6
20260510040154 41 208 0.0 0.0 0.00 0.03 0.03 54 1017.7
20260510035650 42 208 0.0 0.0 0.00 0.03 0.03 53 1017.5
20260510035145 44 210 1.0 1.0 0.00 0.03 0.03 51 1017.5
20260510034642 46 50 0.0 0.0 0.00 0.03 0.03 47 1017.7
20260510034139 46 52 1.0 1.0 0.00 0.03 0.03 47 1017.7
20260510033635 47 47 1.0 1.0 0.00 0.03 0.03 46 1017.4
20260510033133 47 43 1.0 1.0 0.00 0.03 0.03 46 1017.5
20260510032630 47 47 1.0 1.0 0.00 0.03 0.03 46 1017.4
20260510032125 47 32 2.0 2.0 0.00 0.03 0.03 45 1017.3
20260510031620 47 37 1.0 1.0 0.00 0.03 0.03 45 1017.4
20260510031117 48 27 2.0 2.0 0.00 0.03 0.03 45 1017.3
20260510030611 48 25 2.0 2.0 0.00 0.03 0.03 44 1017.1
20260510030109 48 23 3.0 3.0 0.00 0.03 0.03 44 1017.3
20260510025606 48 37 2.0 2.0 0.00 0.03 0.03 44 1017.3
20260510025103 48 359 2.0 2.0 0.00 0.03 0.03 44 1017.4
20260510024600 48 44 1.0 1.0 0.00 0.03 0.03 44 1017.2
20260510024056 48 23 2.0 2.0 0.00 0.03 0.03 45 1017.2
20260510023547 48 24 2.0 2.0 0.00 0.03 0.03 46 1017.0
20260510023045 48 35 2.0 2.0 0.00 0.03 0.03 46 1017.1
20260510022543 48 37 1.0 1.0 0.00 0.03 0.03 45 1017.0
20260510022038 48 29 0.0 1.0 0.00 0.03 0.03 45 1017.0
20260510021535 49 26 2.0 2.0 0.00 0.03 0.03 45 1016.7
20260510021032 50 21 2.0 2.0 0.00 0.03 0.03 44 1016.4
20260510020527 50 21 1.0 1.0 0.00 0.03 0.03 43 1016.7
20260510020023 51 350 2.0 2.0 0.00 0.03 0.03 41 1016.6
20260510015518 52 17 2.0 2.0 0.00 0.03 0.03 42 1016.3
20260510015014 52 355 2.0 2.0 0.00 0.03 0.03 40 1016.4
20260510014511 53 322 3.0 3.0 0.00 0.03 0.03 40 1016.3
20260510014008 54 316 2.0 2.0 0.00 0.03 0.03 39 1016.2
20260510013502 55 321 3.0 3.0 0.00 0.03 0.03 38 1016.3
20260510012959 55 334 5.0 6.0 0.00 0.03 0.03 36 1016.2
20260510012453 56 316 5.0 6.0 0.00 0.03 0.03 35 1016.2
20260510011949 56 353 6.0 8.0 0.00 0.03 0.03 34 1016.2
20260510011444 57 320 6.0 8.0 0.00 0.03 0.03 34 1016.2
20260510010940 57 320 5.0 7.0 0.00 0.03 0.03 33 1016.2
20260510010437 57 321 5.0 7.0 0.00 0.03 0.03 33 1016.0
20260510005933 58 351 5.0 6.0 0.00 0.03 0.03 34 1016.1
20260510005424 58 334 6.0 7.0 0.00 0.03 0.03 33 1016.0
20260510004922 58 306 7.0 9.0 0.00 0.03 0.03 33 1015.7
20260510004419 58 308 9.0 10.0 0.00 0.03 0.03 32 1015.8
20260510003917 59 299 8.0 10.0 0.00 0.03 0.03 32 1015.8
20260510003414 59 331 8.0 10.0 0.00 0.03 0.03 32 1015.9
20260510002913 59 322 8.0 9.0 0.00 0.03 0.03 33 1015.7
20260510002410 59 313 10.0 10.0 0.00 0.03 0.03 32 1015.9
20260510001906 59 303 10.0 13.0 0.00 0.03 0.03 33 1015.7
20260510001404 59 301 9.0 11.0 0.00 0.03 0.03 33 1015.9
20260510000901 59 324 6.0 8.0 0.00 0.03 0.03 33 1015.7
20260510000358 59 359 8.0 10.0 0.00 0.03 0.03 32 1015.7
20260509235854 59 352 7.0 9.0 0.00 0.03 0.03 33 1015.9
20260509235350 59 323 7.0 8.0 0.00 0.03 0.03 33 1015.6
20260509234847 59 321 9.0 13.0 0.00 0.03 0.03 33 1015.9
20260509234343 60 332 6.0 7.0 0.00 0.03 0.03 35 1015.7
20260509233842 60 285 9.0 11.0 0.00 0.03 0.03 33 1015.6
20260509233334 60 283 9.0 10.0 0.00 0.03 0.03 34 1015.6
20260509232829 59 289 7.0 8.0 0.00 0.03 0.03 36 1015.7
20260509232327 60 277 8.0 9.0 0.00 0.03 0.03 36 1015.5
20260509231823 60 266 12.0 14.0 0.00 0.03 0.03 35 1015.5
20260509231320 60 311 6.0 7.0 0.00 0.03 0.03 36 1015.7
20260509230818 60 307 7.0 9.0 0.00 0.03 0.03 34 1015.6
20260509230315 60 305 9.0 10.0 0.00 0.03 0.03 34 1015.6
20260509225809 60 316 8.0 10.0 0.00 0.03 0.03 35 1015.5
20260509225307 59 320 7.0 8.0 0.00 0.03 0.03 35 1015.8
20260509224803 60 313 10.0 14.0 0.00 0.03 0.03 34 1015.5
20260509224259 59 347 4.0 5.0 0.00 0.03 0.03 34 1015.3
20260509223756 59 327 10.0 13.0 0.00 0.03 0.03 34 1015.6
20260509223253 59 342 13.0 15.0 0.00 0.03 0.03 33 1015.5
20260509222749 59 320 10.0 11.0 0.00 0.03 0.03 34 1015.6
20260509222245 60 315 9.0 10.0 0.00 0.03 0.03 34 1015.3
20260509221740 60 343 7.0 9.0 0.00 0.03 0.03 35 1015.7
20260509221237 59 298 9.0 10.0 0.00 0.03 0.03 35 1015.7
20260509220733 59 349 8.0 10.0 0.00 0.03 0.03 35 1015.6
20260509220230 59 338 8.0 10.0 0.00 0.03 0.03 35 1015.8
20260509215725 59 336 10.0 14.0 0.00 0.03 0.03 36 1015.5
20260509215221 59 324 9.0 10.0 0.00 0.03 0.03 36 1015.8
20260509214719 59 328 5.0 7.0 0.00 0.03 0.03 37 1015.6
20260509214216 58 327 9.0 11.0 0.00 0.03 0.03 37 1015.8
20260509213713 58 300 5.0 6.0 0.00 0.03 0.03 37 1015.7
20260509213208 59 301 8.0 9.0 0.00 0.03 0.03 37 1015.8
20260509212706 58 0 8.0 10.0 0.00 0.03 0.03 38 1015.7
20260509212202 59 354 12.0 16.0 0.00 0.03 0.03 39 1015.9
20260509211658 58 338 4.0 5.0 0.00 0.03 0.03 41 1015.7
20260509211155 59 298 9.0 10.0 0.00 0.03 0.03 41 1016.0
20260509210652 59 280 9.0 11.0 0.00 0.03 0.03 39 1016.0
20260509210144 58 323 8.0 9.0 0.00 0.03 0.03 39 1015.8
20260509205639 57 345 13.0 14.0 0.00 0.03 0.03 39 1015.8
20260509205138 57 336 11.0 13.0 0.00 0.03 0.03 40 1015.8
20260509204629 57 311 9.0 13.0 0.00 0.03 0.03 41 1016.0
20260509204126 58 306 8.0 10.0 0.00 0.03 0.03 42 1015.9
20260509203622 57 324 13.0 16.0 0.00 0.03 0.03 41 1016.0
20260509203121 57 291 12.0 13.0 0.00 0.03 0.03 41 1016.0
20260509202620 57 286 6.0 7.0 0.00 0.03 0.03 44 1016.3
20260509202115 56 276 5.0 6.0 0.00 0.03 0.03 42 1016.2
20260509201610 56 336 15.0 17.0 0.00 0.03 0.03 40 1015.7
20260509201108 56 328 10.0 11.0 0.00 0.03 0.03 40 1016.1
20260509200603 56 280 11.0 15.0 0.00 0.03 0.03 41 1016.1
20260509200059 57 317 13.0 15.0 0.00 0.03 0.03 41 1016.2
20260509195555 56 18 5.0 6.0 0.00 0.03 0.03 44 1016.0
20260509195050 57 340 12.0 13.0 0.00 0.03 0.03 42 1016.3
20260509194549 56 280 10.0 13.0 0.00 0.03 0.03 43 1016.2
20260509194047 56 303 9.0 11.0 0.00 0.03 0.03 45 1015.9
20260509193542 55 279 4.0 5.0 0.00 0.03 0.03 44 1015.9
20260509193039 56 306 14.0 21.0 0.00 0.03 0.03 41 1016.1
20260509192536 57 14 7.0 9.0 0.00 0.03 0.03 47 1016.2
20260509192031 56 342 10.0 11.0 0.00 0.03 0.03 45 1016.0
20260509191525 55 320 3.0 3.0 0.00 0.03 0.03 44 1016.1
20260509191021 55 267 7.0 8.0 0.00 0.03 0.03 49 1016.0
20260509190518 55 348 9.0 10.0 0.00 0.03 0.03 46 1016.1
20260509190016 55 350 4.0 6.0 0.00 0.03 0.03 46 1015.9
20260509185513 54 302 10.0 11.0 0.00 0.03 0.03 47 1016.0
20260509185009 55 5 4.0 6.0 0.00 0.03 0.03 42 1016.1
20260509184508 55 302 7.0 8.0 0.00 0.03 0.03 48 1016.2
20260509184004 55 296 7.0 8.0 0.00 0.03 0.03 47 1016.3
20260509183500 54 323 3.0 5.0 0.00 0.03 0.03 46 1016.3
20260509182956 54 325 8.0 11.0 0.00 0.03 0.03 48 1016.0
20260509182452 54 226 3.0 3.0 0.00 0.03 0.03 51 1016.2
20260509181949 54 223 5.0 7.0 0.00 0.03 0.03 49 1016.1
20260509181447 53 4 6.0 7.0 0.00 0.03 0.03 50 1016.2
20260509180945 53 17 4.0 5.0 0.00 0.03 0.03 46 1016.2
20260509180440 53 7 7.0 10.0 0.00 0.03 0.03 50 1016.2
20260509175936 53 301 8.0 9.0 0.00 0.03 0.03 47 1016.2
20260509175427 53 305 7.0 10.0 0.00 0.03 0.03 48 1016.3
20260509174923 53 281 5.0 7.0 0.00 0.03 0.03 48 1016.3
20260509174420 52 345 2.0 2.0 0.00 0.03 0.03 48 1016.1
20260509173915 51 304 7.0 8.0 0.00 0.03 0.03 51 1016.2
20260509173410 53 278 11.0 13.0 0.00 0.03 0.03 50 1016.2
20260509172906 52 324 5.0 6.0 0.00 0.03 0.03 50 1016.2
20260509172403 52 309 9.0 11.0 0.00 0.03 0.03 52 1016.1
20260509171859 51 312 6.0 7.0 0.00 0.03 0.03 51 1016.1
20260509171355 52 21 4.0 5.0 0.00 0.03 0.03 52 1016.1
20260509170852 51 336 7.0 9.0 0.00 0.03 0.03 53 1016.1
20260509170347 51 320 6.0 8.0 0.00 0.03 0.03 55 1016.3
20260509165841 51 313 5.0 6.0 0.00 0.03 0.03 54 1016.1
20260509165331 51 346 6.0 7.0 0.00 0.03 0.03 53 1016.2
20260509164827 51 253 7.0 10.0 0.00 0.03 0.03 52 1016.1
20260509164324 50 342 8.0 9.0 0.00 0.03 0.03 51 1016.0